[[{"header":{"parameterUnit":"m.s-1","parameterCategory":1,"la1":30.2991,"la2":30.254,"lo1":-89.0895,"lo2":-89.0444,"dx":0.0017,"dy":0.0017,"nx":28,"ny":28,"refTime":"2022-12-14T15:00:00:Z","depth":0,"parameterNumber":2,"parameterNumberName":"U-component_of_WINDS"},"data":[0,0,0,0,0,0,0,0,0,0,0,0,0,0,0,0,0,0,0,0,0,0,0,0,0,0,0,0,0,0,0,0,0,0,0,0,0,0,0,0,0,0,0,0,0,0,0,0,0,0,0,0,0,0,0,0,0,0,-2.9789,-2.9791,0,-2.9911,-2.9912,-2.9914,-2.9952,-2.9951,-2.9951,-2.995,-3.0078,-3.0082,-3.0086,0,0,0,0,0,0,0,0,0,0,0,0,0,-2.9593,-2.9597,-2.9789,-2.9791,-2.9792,-2.9911,-2.9912,-2.9914,-2.9952,-2.9951,-2.995,-2.995,-3.0077,-3.0081,-3.0086,0,0,0,0,0,0,0,0,0,0,0,0,0,-2.9693,-2.9598,-2.9789,-2.9825,-2.983,-2.991,-2.9912,-2.9914,-2.9952,-2.9951,-2.995,-2.9949,-3.0075,-3.0081,-3.0087,-3.0141,0,0,-3.0105,-3.0107,0,0,0,0,0,0,0,0,-2.9687,-2.97,-2.9819,-2.9823,-2.9828,-2.9915,-2.989,-2.999,-2.9952,-2.9906,-2.995,-2.9949,-3.0025,-3.0035,-3.006,-3.0147,-3.0152,-3.0105,-3.0109,-3.0111,-3.0113,0,0,0,0,0,0,0,-2.968,-2.9695,-2.9837,-2.982,-2.9826,-2.9837,-2.985,-2.9909,-2.9969,-2.991,-2.9913,-2.9926,-3.0027,-3.0054,-3.0063,-3.0154,-3.0105,-3.011,-3.0114,-3.0116,-3.0291,-3.0292,0,0,0,0,0,0,-2.9667,-2.9689,-2.9834,-2.9841,-2.9754,-2.9841,-2.9856,-2.9888,-2.9968,-2.9979,-2.9927,-2.9928,-3.0044,-3.0056,-3.0067,-3.0135,-3.0111,-3.0117,-3.012,-3.029,-3.0291,-3.0293,0,0,0,0,0,0,-2.9662,-2.9679,-2.9829,-2.9766,-2.9786,-2.9845,-2.9881,-2.9891,-2.9917,-2.9981,-2.9992,-2.9943,-3.0044,-3.0059,-3.0122,-3.014,-3.012,-3.0125,-3.0289,-3.029,-3.0292,-3.0271,0,0,0,0,0,0,-2.9657,-2.9677,-2.9698,-2.9766,-2.9789,-2.988,-2.9883,-2.9894,-2.9927,-2.9929,-2.9999,-3.001,-3.0044,-3.0113,-3.0128,-3.0148,-3.013,-3.0287,-3.0289,-3.0291,-3.027,-3.0272,-3.0273,0,0,0,0,0,-2.9649,-2.9688,-2.9699,-2.9716,-2.9815,-2.9881,-2.9894,-2.9932,-2.9928,-2.995,-2.9991,-3.0008,-3.0136,-3.0119,-3.0136,-3.0158,-3.0286,-3.0289,-3.0291,-3.027,-3.0272,-3.0273,0,0,0,0,0,0,-2.9622,-2.9698,-2.971,-2.9772,-2.9819,-2.9887,-2.9915,-2.9933,-2.9983,-2.9983,-3.0029,-3.0045,-3.0103,-3.0138,-3.0117,-3.0214,-3.0212,-3.0218,-3.019,-3.0192,-3.0193,-3.0183,-3.0135,0,0,0,0,0,-2.9623,-2.9668,-2.9733,-2.9781,-2.9804,-2.9855,-2.9885,-2.991,-2.9962,-2.9983,-3.0028,-3.0078,-3.013,-3.0163,-3.0214,-3.0276,-3.0292,-3.03,-3.0301,-3.0302,-3.0306,-3.0341,-3.0345,-3.0301,-3.0301,-3.0301,0,0,-2.9626,-2.9673,-2.9699,-2.9777,-2.9816,-2.9863,-2.9872,-2.9922,-2.9957,-2.9991,-3.0052,-3.0087,-3.0146,-3.0208,-3.0238,-3.0238,-3.0322,-3.0305,-3.0305,-3.0309,-3.0344,-3.0348,-3.0351,-3.0302,-3.0302,-3.0302,0,0,-2.9654,-2.9695,-2.9738,-2.9778,-2.9837,-2.9871,-2.9882,-2.9947,-2.9971,-3.0033,-3.0058,-3.0102,-3.019,-3.0231,-3.0263,-3.0307,-3.0324,-3.0323,-3.0329,-3.0362,-3.0366,-3.0369,-3.0383,-3.0388,-3.0327,-3.0327,-3.0327,0,-2.965,-2.9721,-2.9759,-2.9807,-2.984,-2.9872,-2.9917,-2.9954,-3.0027,-3.005,-3.0049,-3.016,-3.0202,-3.0274,-3.0284,-3.031,-3.0323,-3.0314,-3.0362,-3.0365,-3.0369,-3.0384,-3.0389,-3.0326,-3.0326,-3.0326,-3.0326,0,-2.9712,-2.9761,-2.979,-2.9858,-2.9895,-2.9941,-2.9988,-3.0021,-3.0042,-3.0076,-3.0139,-3.0191,-3.0253,-3.0272,-3.0294,-3.0347,-3.0345,-3.0352,-3.0351,-3.0372,-3.0386,-3.0392,-3.0325,-3.0325,-3.0326,-3.0326,0,0,-2.9727,-2.9815,-2.9825,-2.9856,-2.9924,-2.9963,-3.0011,-3.007,-3.0097,-3.0147,-3.0188,-3.0262,-3.0269,-3.0305,-3.0333,-3.0362,-3.0392,-3.0366,-3.0368,-3.0368,-3.0452,-3.0445,-3.0451,-3.0404,-3.0405,-3.0406,-3.0447,0,-2.9763,-2.9848,-2.9884,-2.9953,-2.9998,-3.0028,-3.007,-3.0117,-3.015,-3.0194,-3.0232,-3.0282,-3.0288,-3.0311,-3.0341,-3.0382,-3.0409,-3.038,-3.0443,-3.0445,-3.0426,-3.0458,-3.0451,-3.0487,-3.0453,-3.0454,-3.0454,0,-2.9817,-2.9865,-2.9938,-2.9999,-3.0019,-3.0056,-3.0113,-3.0154,-3.0208,-3.023,-3.027,-3.0296,-3.0349,-3.0344,-3.0416,-3.0395,-3.0424,-3.0448,-3.045,-3.0457,-3.045,-3.0465,-3.0499,-3.0504,-3.0464,-3.0463,-3.0462,0,-2.9818,-2.9902,-2.9956,-2.9982,-3.0055,-3.008,-3.0112,-3.0165,-3.0197,-3.0248,-3.0269,-3.0326,-3.0356,-3.0399,-3.044,-3.0433,-3.0508,-3.0507,-3.0528,-3.0527,-3.0542,-3.0541,-3.058,-3.0562,-3.0562,-3.0562,-3.0562,0,-2.9854,-2.9897,-2.9957,-2.999,-3.004,-3.0081,-3.0129,-3.0164,-3.021,-3.0251,-3.0282,-3.032,-3.0372,-3.0417,-3.0449,-3.0504,-3.0518,-3.0537,-3.0545,-3.0534,-3.0531,-3.0553,-3.0551,-3.0564,-3.0563,-3.0563,-3.0563,0,-2.9864,-2.9906,-2.9966,-3.003,-3.0047,-3.0081,-3.0136,-3.017,-3.0205,-3.0256,-3.0271,-3.0325,-3.038,-3.0425,-3.0497,-3.0518,-3.0575,-3.0585,-3.0556,-3.056,-3.0578,-3.0576,-3.0633,-3.0642,-3.0618,-3.0618,-3.0618,0,-2.9883,-2.9917,-2.9984,-3.0013,-3.0044,-3.009,-3.0124,-3.0166,-3.02,-3.0263,-3.0289,-3.0345,-3.0393,-3.0478,-3.0525,-3.058,-3.0591,-3.0607,-3.06,-3.0587,-3.059,-3.0587,-3.0591,-3.0608,-3.0608,-3.0608,-3.0608,0,-2.9914,-2.9932,-2.9978,-3.0031,-3.007,-3.0114,-3.0159,-3.0181,-3.0233,-3.0269,-3.0324,-3.036,-3.0433,-3.0488,-3.0548,-3.0583,-3.0604,-3.061,-3.0617,-3.0606,-3.0587,-3.0596,-3.0557,-3.0608,-3.0608,-3.0608,-3.0608,-3.0608,-2.9929,-2.9959,-3.0011,-3.0061,-3.0099,-3.014,-3.0174,-3.0213,-3.0259,-3.032,-3.0343,-3.0399,-3.0453,-3.0535,-3.0569,-3.0615,-3.0617,-3.0629,-3.0631,-3.0633,-3.0631,-3.058,-3.0626,-3.0626,-3.0626,-3.0626,-3.0626,0,-2.9959,-2.9993,-3.0039,-3.01,-3.014,-3.0155,-3.0206,-3.0238,-3.0286,-3.0333,-3.0379,-3.0442,-3.0496,-3.0547,-3.0603,-3.063,-3.0641,-3.0643,-3.0641,-3.0649,-3.0626,-3.0613,-3.0633,-3.0633,-3.0633,-3.0633,-3.0633,-3.0633,-2.998,-3.0032,-3.0057,-3.0129,-3.0164,-3.0217,-3.0245,-3.0283,-3.0321,-3.0389,-3.0434,-3.0466,-3.0515,-3.0575,-3.0626,-3.0639,-3.0659,-3.0658,-3.0674,-3.0652,-3.065,-3.0649,-3.0637,-3.0662,-3.0662,-3.0693,-3.0693,-3.0693]},{"header":{"parameterUnit":"m.s-1","parameterCategory":1,"la1":30.2991,"la2":30.254,"lo1":-89.0895,"lo2":-89.0444,"dx":0.0017,"dy":0.0017,"nx":28,"ny":28,"refTime":"2022-12-14T15:00:00:Z","depth":0,"parameterNumber":3,"parameterNumberName":"V-component_of_WINDS"},"data":[0,0,0,0,0,0,0,0,0,0,0,0,0,0,0,0,0,0,0,0,0,0,0,0,0,0,0,0,0,0,0,0,0,0,0,0,0,0,0,0,0,0,0,0,0,0,0,0,0,0,0,0,0,0,0,0,0,0,3.3814,3.3815,0,3.386,3.386,3.3861,3.3864,3.3863,3.3863,3.3862,3.3909,3.3911,3.3913,0,0,0,0,0,0,0,0,0,0,0,0,0,3.3732,3.3733,3.3814,3.3815,3.3815,3.386,3.386,3.3861,3.3864,3.3863,3.3863,3.3862,3.3909,3.3911,3.3913,0,0,0,0,0,0,0,0,0,0,0,0,0,3.3771,3.3734,3.3814,3.3822,3.3823,3.386,3.386,3.3861,3.3864,3.3863,3.3862,3.3862,3.3908,3.3911,3.3913,3.3945,0,0,3.3921,3.3922,0,0,0,0,0,0,0,0,3.3769,3.3774,3.382,3.3822,3.3823,3.3855,3.3849,3.3889,3.3864,3.3849,3.3862,3.3861,3.3892,3.3896,3.3906,3.3947,3.3949,3.3922,3.3923,3.3924,3.3925,0,0,0,0,0,0,0,3.3766,3.3773,3.3832,3.3821,3.3823,3.3824,3.3829,3.3856,3.3874,3.385,3.385,3.3856,3.3893,3.3904,3.3907,3.395,3.3921,3.3924,3.3925,3.3926,3.4022,3.4023,0,0,0,0,0,0,3.3762,3.377,3.3831,3.3834,3.3794,3.3826,3.3832,3.3846,3.3874,3.3877,3.3856,3.3855,3.39,3.3904,3.3909,3.395,3.3924,3.3927,3.3928,3.4022,3.4023,3.4024,0,0,0,0,0,0,3.376,3.3767,3.3829,3.3802,3.381,3.3829,3.3844,3.3847,3.3858,3.3879,3.3882,3.3864,3.3899,3.3905,3.3937,3.3952,3.3928,3.393,3.402,3.4022,3.4023,3.4032,0,0,0,0,0,0,3.3758,3.3767,3.3778,3.3802,3.3811,3.3855,3.3845,3.3849,3.3863,3.3862,3.3887,3.389,3.3899,3.3933,3.3939,3.3955,3.3932,3.4019,3.4021,3.4023,3.403,3.4033,3.4036,0,0,0,0,0,3.3755,3.3778,3.3779,3.3786,3.3826,3.3856,3.3861,3.3871,3.3864,3.3876,3.389,3.3889,3.3949,3.3936,3.3943,3.396,3.4018,3.402,3.4023,3.4029,3.4032,3.4036,0,0,0,0,0,0,3.3755,3.3781,3.3782,3.3814,3.3833,3.3856,3.3872,3.3874,3.3895,3.3894,3.3905,3.3911,3.3943,3.3954,3.3939,3.3994,3.3983,3.3987,3.3985,3.3989,3.3992,3.3989,3.3934,0,0,0,0,0,3.3758,3.378,3.3802,3.3828,3.3838,3.3853,3.3867,3.3873,3.3893,3.39,3.3916,3.3936,3.396,3.3975,3.3997,3.4032,3.4038,3.4047,3.405,3.4052,3.4056,3.4078,3.4082,3.4031,3.4031,3.4031,0,0,3.3766,3.3783,3.3796,3.3829,3.3844,3.3867,3.386,3.3884,3.3902,3.3904,3.3935,3.3948,3.3971,3.4005,3.402,3.4015,3.4071,3.4055,3.4056,3.4059,3.408,3.4085,3.4089,3.4033,3.4032,3.4032,0,0,3.3793,3.3807,3.3831,3.3847,3.3871,3.3882,3.3888,3.3912,3.392,3.3952,3.3955,3.3976,3.4016,3.4033,3.4047,3.4082,3.4084,3.4089,3.4105,3.4126,3.413,3.4134,3.4149,3.4154,3.4092,3.4093,3.4093,0,3.3799,3.3834,3.3844,3.3869,3.3884,3.3888,3.3914,3.3928,3.3958,3.3969,3.3963,3.4015,3.403,3.4069,3.4078,3.4089,3.4097,3.4087,3.4129,3.4132,3.4136,3.4151,3.4156,3.4093,3.4093,3.4093,3.4093,0,3.3842,3.3867,3.3884,3.3913,3.393,3.3955,3.397,3.3986,3.3991,3.4003,3.4036,3.4055,3.4083,3.4093,3.4097,3.4133,3.413,3.4126,3.4116,3.4141,3.4155,3.4161,3.4094,3.4094,3.4094,3.4094,0,0,3.3869,3.3906,3.3912,3.3926,3.3954,3.3973,3.3999,3.4027,3.4042,3.4062,3.4086,3.412,3.4118,3.4134,3.414,3.4159,3.4189,3.4153,3.4154,3.4161,3.4233,3.4237,3.4243,3.419,3.4191,3.4192,3.4232,0,3.39,3.3947,3.3958,3.3998,3.4022,3.4027,3.4051,3.4071,3.4083,3.4106,3.4119,3.4144,3.4138,3.4148,3.4166,3.4182,3.4204,3.4179,3.4214,3.4215,3.4209,3.425,3.4254,3.4291,3.4237,3.4238,3.4239,0,3.3942,3.3965,3.4009,3.4036,3.4046,3.4066,3.4094,3.4115,3.4139,3.4147,3.4165,3.4171,3.42,3.4188,3.4229,3.4212,3.4227,3.4237,3.4239,3.4244,3.4229,3.4258,3.4303,3.4309,3.4247,3.4246,3.4246,0,3.396,3.4002,3.4034,3.4046,3.4077,3.4092,3.4106,3.4129,3.4146,3.417,3.4182,3.4208,3.4224,3.4245,3.4259,3.4248,3.43,3.4288,3.4309,3.4309,3.4321,3.432,3.437,3.4327,3.4327,3.4327,3.4327,0,3.3995,3.4021,3.4043,3.4063,3.4094,3.4106,3.4137,3.4151,3.4172,3.4195,3.4201,3.4223,3.4239,3.4264,3.4274,3.4309,3.4315,3.4323,3.4326,3.4324,3.4323,3.4335,3.4333,3.4329,3.4328,3.4328,3.4328,0,3.402,3.4035,3.4071,3.4099,3.4106,3.4128,3.4152,3.4172,3.4185,3.4216,3.4223,3.4244,3.4274,3.4289,3.4326,3.4333,3.4373,3.4373,3.4365,3.4367,3.4388,3.4386,3.4448,3.4458,3.4407,3.4408,3.4408,0,3.4042,3.4063,3.4093,3.411,3.4124,3.415,3.4168,3.4182,3.42,3.423,3.4247,3.4278,3.4303,3.435,3.4369,3.4398,3.4401,3.4421,3.4405,3.4403,3.4404,3.4403,3.4406,3.4424,3.4424,3.4424,3.4425,0,3.4079,3.4086,3.4111,3.414,3.4161,3.4184,3.4207,3.422,3.4238,3.4259,3.429,3.4309,3.4348,3.4379,3.441,3.4425,3.4429,3.443,3.4436,3.4435,3.443,3.4436,3.4375,3.4428,3.4428,3.4428,3.4427,3.4427,3.4105,3.4125,3.415,3.4179,3.4198,3.422,3.4241,3.4257,3.4283,3.4316,3.4323,3.4356,3.4382,3.4424,3.4441,3.4468,3.4464,3.4473,3.4476,3.4478,3.448,3.4425,3.4473,3.4473,3.4473,3.4473,3.4473,0,3.4145,3.4162,3.4188,3.422,3.4244,3.4245,3.4271,3.429,3.432,3.4343,3.4368,3.4405,3.4436,3.4458,3.449,3.4507,3.451,3.4516,3.4515,3.4519,3.4481,3.4473,3.4513,3.4513,3.4513,3.4513,3.4513,3.4513,3.4168,3.4203,3.4214,3.4259,3.4276,3.4309,3.4324,3.4345,3.4364,3.4405,3.4431,3.4445,3.4469,3.4503,3.4532,3.4537,3.455,3.4555,3.4562,3.4526,3.4521,3.4518,3.451,3.4557,3.4557,3.4598,3.4598,3.4599]}]]